IONOSFERA-M 2

Last updated on Mon Sep 21 2026 00:02:46 GMT+0000 (Coordinated Universal Time)

1 61736U 24199B 26263.58931876 .00000025 00000+0 30592-4 0 9993 2 61736 98.7005 135.5955 0001895 67.3525 292.7854 14.22772252144390
UTC large
Height (km)
Speed (km/s)
/
Latitude / Longitude
Inclination (degrees)
Orbital Period (minutes)
Azimuth
Elevation
Range (km)
Doppler Factor

Next 0 passes for location: London (51.5072 / 0.1276)

No passes found over London.
IONOSFERA-M 2